Location: Czekanka
(50.4925°N, 19.2643°E)
Time: 01:38:11
(UTC+00:00)

H-2A R/B - Pass Details

Date: 15 June 2024
Orbit: 553 x 568 km, 98.1° (Epoch: 22 July)

Event Time Altitude Azimuth Distance (km) Brightness Sun altitude
Rises 00:25:00 0° 18° (NNE) 2,747 8.9 -12.8°
Reaches altitude 10° 00:27:10 10° 23° (NNE) 1,847 7.5 -12.7°
Maximum altitude 00:31:05 54° 101° (E) 680 3.8 -12.4°
Enters shadow 00:34:14 15° 176° (S) 1,535 5.1 -12.2°
